DW8567 Weather Reports


Display with metric or nautical units.
time (UTC)temp
F
wind
direction
speed
MPH
gust
MPH
rain 1hr
in
rain 24hr
in
rain mn
in
humidity
%
barometer
mb
20260505121520 65 227 6.0 14.0 0.00 0.00 0.00 61 1011.6
20260505121022 65 203 6.0 14.0 0.00 0.00 0.00 62 1011.7
20260505120518 65 218 7.0 14.0 0.00 0.00 0.00 63 1011.7
20260505120252 65 247 7.0 14.0 0.00 0.00 0.00 63 1011.6
20260505115518 64 226 7.0 14.0 0.00 0.00 0.00 64 1011.5
20260505115251 64 221 7.0 14.0 0.00 0.00 0.00 65 1011.4
20260505114519 64 199 6.0 12.0 0.00 0.00 0.00 66 1011.5
20260505114017 64 216 7.0 13.0 0.00 0.00 0.00 66 1011.5
20260505113518 64 235 7.0 13.0 0.00 0.00 0.00 67 1011.4
20260505113016 63 234 7.0 13.0 0.00 0.00 0.00 67 1011.4
20260505112746 63 202 7.0 13.0 0.00 0.00 0.00 67 1011.3
20260505112016 63 224 6.0 12.0 0.00 0.00 0.00 67 1011.3
20260505111509 63 190 6.0 12.0 0.00 0.00 0.00 67 1011.2
20260505111003 63 225 5.0 11.0 0.00 0.00 0.00 68 1011.3
20260505110455 63 205 5.0 13.0 0.00 0.00 0.00 68 1011.2
20260505101354 63 206 7.0 16.0 0.00 0.00 0.00 68 1010.9
20260505100848 63 215 8.0 14.0 0.00 0.00 0.00 68 1010.8
20260505100342 63 207 7.0 16.0 0.00 0.00 0.00 68 1010.7
20260505095837 63 213 6.0 16.0 0.00 0.00 0.00 68 1010.6
20260505095330 63 221 6.0 16.0 0.00 0.00 0.00 68 1010.6
20260505094825 63 171 6.0 15.0 0.00 0.00 0.00 68 1010.6
20260505094319 62 196 6.0 12.0 0.00 0.00 0.00 68 1011.0
20260505093813 62 188 6.0 10.0 0.00 0.00 0.00 69 1010.6
20260505093307 62 186 5.0 10.0 0.00 0.00 0.00 70 1010.6
20260505092800 61 192 4.0 9.0 0.00 0.00 0.00 70 1010.7
20260505092527 61 199 4.0 9.0 0.00 0.00 0.00 70 1010.8
20260505091748 61 229 4.0 8.0 0.00 0.00 0.00 70 1010.8
20260505091242 61 211 4.0 8.0 0.00 0.00 0.00 70 1010.7
20260505090736 61 213 5.0 9.0 0.00 0.00 0.00 71 1010.6
20260505090234 61 202 4.0 9.0 0.00 0.00 0.00 71 1010.7
20260505090228 61 246 3.0 8.0 0.00 0.00 0.00 72 1010.8
20260505085219 61 221 3.0 8.0 0.00 0.00 0.00 72 1010.7
20260505084712 61 220 3.0 8.0 0.00 0.00 0.00 71 1010.6
20260505084207 61 202 3.0 7.0 0.00 0.00 0.00 71 1010.5
20260505083700 61 201 4.0 8.0 0.00 0.00 0.00 71 1010.5
20260505083154 61 207 3.0 8.0 0.00 0.00 0.00 71 1010.5
20260505082648 61 190 3.0 7.0 0.00 0.00 0.00 71 1010.6
20260505082142 61 209 3.0 7.0 0.00 0.00 0.00 70 1010.6
20260505081636 62 213 5.0 10.0 0.00 0.00 0.00 70 1010.6
20260505081130 62 225 5.0 10.0 0.00 0.00 0.00 70 1010.6
20260505080627 62 203 5.0 10.0 0.00 0.00 0.00 69 1010.6
20260505080621 62 214 5.0 9.0 0.00 0.00 0.00 69 1010.7
20260505075612 62 209 5.0 10.0 0.00 0.00 0.00 69 1010.7
20260505075107 62 187 6.0 11.0 0.00 0.00 0.00 69 1010.7
20260505074601 62 209 6.0 11.0 0.00 0.00 0.00 68 1010.7
20260505074054 62 213 7.0 12.0 0.00 0.00 0.00 68 1010.6
20260505073548 62 242 6.0 12.0 0.00 0.00 0.00 68 1010.6
20260505073042 62 196 6.0 12.0 0.00 0.00 0.00 68 1010.6
20260505072536 62 196 6.0 11.0 0.00 0.00 0.00 68 1010.7
20260505072030 62 213 6.0 12.0 0.00 0.00 0.00 68 1010.6
20260505071525 62 199 7.0 12.0 0.00 0.00 0.00 67 1010.7
20260505071247 62 219 6.0 12.0 0.00 0.00 0.00 67 1010.6
20260505071122 62 225 7.0 11.0 0.00 0.00 0.00 67 1010.6
20260505070005 62 202 5.0 12.0 0.00 0.00 0.00 67 1010.7
20260505065500 62 196 4.0 8.0 0.00 0.00 0.00 66 1010.7
20260505065227 62 213 5.0 9.0 0.00 0.00 0.00 66 1010.5
20260505064448 62 189 6.0 13.0 0.00 0.00 0.00 66 1010.5
20260505064213 62 208 6.0 13.0 0.00 0.00 0.00 66 1010.4
20260505063436 62 208 5.0 9.0 0.00 0.00 0.00 66 1010.4
20260505062930 62 200 5.0 9.0 0.00 0.00 0.00 66 1010.4
20260505062424 62 224 5.0 10.0 0.00 0.00 0.00 66 1010.4
20260505062150 62 202 4.0 10.0 0.00 0.00 0.00 65 1010.5
20260505061412 62 203 3.0 7.0 0.00 0.00 0.00 65 1010.6
20260505060906 62 214 3.0 7.0 0.00 0.00 0.00 65 1010.5
20260505060632 62 196 3.0 6.0 0.00 0.00 0.00 64 1010.5
20260505060125 62 193 3.0 6.0 0.00 0.00 0.00 64 1010.5
20260505055348 62 208 3.0 9.0 0.00 0.00 0.00 64 1010.6
20260505055113 62 202 3.0 9.0 0.00 0.00 0.00 64 1010.6
20260505054607 62 184 4.0 9.0 0.00 0.00 0.00 64 1010.6
20260505053830 62 196 4.0 9.0 0.00 0.00 0.00 64 1010.7
20260505053556 62 202 4.0 8.0 0.00 0.00 0.00 64 1010.8
20260505052818 62 218 4.0 8.0 0.00 0.00 0.00 64 1010.7
20260505052312 62 205 4.0 7.0 0.00 0.00 0.00 64 1010.8
20260505051807 62 208 3.0 7.0 0.00 0.00 0.00 63 1010.8
20260505051301 62 202 3.0 7.0 0.00 0.00 0.00 63 1010.9
20260505050757 62 194 3.0 7.0 0.00 0.00 0.00 63 1010.8
20260505050750 62 215 4.0 8.0 0.00 0.00 0.00 63 1010.8
20260505041654 62 178 4.0 9.0 0.00 0.00 0.00 64 1010.6
20260505041420 62 167 4.0 6.0 0.00 0.00 0.00 64 1010.8
20260505040642 62 186 3.0 6.0 0.00 0.00 0.00 64 1010.8
20260505040409 62 178 4.0 6.0 0.00 0.00 0.00 63 1010.8
20260505035629 62 159 4.0 6.0 0.00 0.00 0.00 63 1010.8
20260505035124 62 184 3.0 6.0 0.00 0.00 0.00 62 1010.8
20260505034617 62 171 3.0 6.0 0.00 0.00 0.00 61 1010.8
20260505034112 62 178 3.0 5.0 0.00 0.00 0.00 61 1010.8
20260505033836 62 178 3.0 6.0 0.00 0.00 0.00 60 1010.8
20260505033059 62 161 2.0 6.0 0.00 0.00 0.00 59 1010.9
20260505032553 62 184 2.0 5.0 0.00 0.00 0.00 58 1010.9
20260505032318 62 184 2.0 6.0 0.00 0.00 0.00 57 1011.0
20260505031541 62 136 3.0 6.0 0.00 0.00 0.00 56 1010.7
20260505031035 63 169 3.0 6.0 0.00 0.00 0.00 56 1010.9
20260505030530 63 179 3.0 6.0 0.00 0.00 0.00 55 1010.9
20260505030029 63 179 3.0 6.0 0.00 0.00 0.00 54 1011.0
20260505025525 63 182 3.0 6.0 0.00 0.00 0.00 54 1010.9
20260505025026 63 165 3.0 6.0 0.00 0.00 0.00 53 1011.0
20260505024525 63 190 3.0 6.0 0.00 0.00 0.00 53 1011.0
20260505024025 63 169 3.0 6.0 0.00 0.00 0.00 52 1011.1
20260505023525 64 187 3.0 6.0 0.00 0.00 0.00 51 1011.1
20260505023027 64 182 3.0 6.0 0.00 0.00 0.00 51 1011.1
20260505022754 64 181 3.0 8.0 0.00 0.00 0.00 50 1011.1
20260505022023 64 179 3.0 8.0 0.00 0.00 0.00 50 1011.1
20260505021523 64 154 3.0 8.0 0.00 0.00 0.00 50 1011.1
20260505021021 64 168 4.0 8.0 0.00 0.00 0.00 49 1011.1
20260505020520 65 155 3.0 7.0 0.00 0.00 0.00 49 1011.1
20260505020018 65 169 3.0 7.0 0.00 0.00 0.00 48 1011.1
20260505015518 65 169 2.0 5.0 0.00 0.00 0.00 48 1011.1
20260505015017 65 169 2.0 5.0 0.00 0.00 0.00 47 1011.1
20260505014516 66 169 3.0 6.0 0.00 0.00 0.00 47 1011.0
20260505014014 66 169 4.0 6.0 0.00 0.00 0.00 47 1011.0
20260505013516 66 158 4.0 8.0 0.00 0.00 0.00 46 1011.0
20260505013009 66 178 4.0 8.0 0.00 0.00 0.00 46 1011.0
20260505012504 66 161 4.0 7.0 0.00 0.00 0.00 46 1010.9
20260505011957 67 171 4.0 8.0 0.00 0.00 0.00 45 1010.9
20260505011723 67 144 4.0 7.0 0.00 0.00 0.00 45 1010.7
20260505010949 67 151 3.0 7.0 0.00 0.00 0.00 44 1010.7
20260505010942 67 197 3.0 7.0 0.00 0.00 0.00 44 1010.6
20260505005933 67 178 3.0 7.0 0.00 0.00 0.00 44 1010.7
20260505005427 68 181 4.0 9.0 0.00 0.00 0.00 43 1010.5
20260505005152 68 199 4.0 9.0 0.00 0.00 0.00 43 1010.4
20260505004647 68 190 3.0 7.0 0.00 0.00 0.00 43 1010.4
20260505003910 68 175 4.0 9.0 0.00 0.00 0.00 42 1010.4
20260505003635 69 175 4.0 9.0 0.00 0.00 0.00 42 1010.4
20260505002859 69 0 4.0 8.0 0.00 0.00 0.00 41 1010.2
20260505002352 69 185 5.0 9.0 0.00 0.00 0.00 40 1010.2
20260505001848 69 184 5.0 9.0 0.00 0.00 0.00 40 1010.2
20260505001842 70 171 5.0 9.0 0.00 0.00 0.00 39 1010.1
20260505000836 70 184 5.0 10.0 0.00 0.00 0.00 39 1010.1
20260505000830 70 215 6.0 11.0 0.00 0.00 0.00 38 1010.1
20260505000054 70 182 6.0 11.0 0.00 0.00 0.00 38 1010.0
20260504235315 70 199 6.0 14.0 0.00 0.00 0.00 38 1010.0
20260504234809 71 199 6.0 14.0 0.00 0.00 0.00 37 1010.0
20260504234303 71 219 7.0 16.0 0.00 0.00 0.00 37 1009.8
20260504233759 71 238 8.0 16.0 0.00 0.00 0.00 37 1009.9
20260504233251 71 188 7.0 16.0 0.00 0.00 0.00 37 1009.7
20260504232745 71 248 6.0 13.0 0.00 0.00 0.00 37 1009.8
20260504232241 71 235 7.0 12.0 0.00 0.00 0.00 36 1009.7
20260504231733 71 194 8.0 17.0 0.00 0.00 0.00 36 1009.7
20260504231227 71 217 8.0 16.0 0.00 0.00 0.00 35 1009.7
20260504230722 72 224 8.0 17.0 0.00 0.00 0.00 35 1009.7
20260504230215 72 194 8.0 16.0 0.00 0.00 0.00 34 1009.6
20260504225941 72 206 7.0 16.0 0.00 0.00 0.00 35 1009.7
20260504225434 72 212 8.0 17.0 0.00 0.00 0.00 35 1009.8
20260504224657 72 180 9.0 17.0 0.00 0.00 0.00 34 1009.8
20260504224151 72 218 9.0 17.0 0.00 0.00 0.00 34 1009.8
20260504223646 72 207 9.0 17.0 0.00 0.00 0.00 34 1009.8
20260504223140 72 247 9.0 17.0 0.00 0.00 0.00 34 1009.8
20260504222634 73 232 9.0 19.0 0.00 0.00 0.00 33 1009.8
20260504222127 73 220 9.0 19.0 0.00 0.00 0.00 33 1009.8
20260504221852 73 217 8.0 18.0 0.00 0.00 0.00 33 1009.8
20260504221115 73 199 8.0 18.0 0.00 0.00 0.00 33 1009.8
20260504220609 73 208 8.0 20.0 0.00 0.00 0.00 32 1009.8
20260504215557 73 217 7.0 20.0 0.00 0.00 0.00 32 1009.9
20260504215323 73 255 7.0 20.0 0.00 0.00 0.00 32 1009.9
20260504214546 73 196 7.0 19.0 0.00 0.00 0.00 33 1010.0
20260504214040 73 226 8.0 19.0 0.00 0.00 0.00 32 1010.0
20260504213533 73 234 9.0 20.0 0.00 0.00 0.00 33 1010.0
20260504213258 73 223 10.0 20.0 0.00 0.00 0.00 32 1010.0
20260504212522 73 184 9.0 18.0 0.00 0.00 0.00 32 1010.0
20260504212016 73 191 9.0 18.0 0.00 0.00 0.00 32 1010.1
20260504211510 73 218 9.0 18.0 0.00 0.00 0.00 32 1009.9
20260504211354 73 228 9.0 19.0 0.00 0.00 0.00 32 1010.0
20260504211245 73 247 9.0 19.0 0.00 0.00 0.00 32 1010.1
20260504205952 73 200 10.0 17.0 0.00 0.00 0.00 32 1010.1
20260504205445 73 190 10.0 18.0 0.00 0.00 0.00 31 1010.0
20260504205211 73 240 11.0 27.0 0.00 0.00 0.00 32 1010.0
20260504204433 73 256 12.0 27.0 0.00 0.00 0.00 31 1010.0
20260504203928 74 234 10.0 20.0 0.00 0.00 0.00 30 1010.1
20260504203423 74 229 9.0 16.0 0.00 0.00 0.00 31 1010.0
20260504202916 74 239 9.0 16.0 0.00 0.00 0.00 31 1010.1
20260504202409 73 236 8.0 19.0 0.00 0.00 0.00 31 1010.1
20260504202134 73 258 9.0 19.0 0.00 0.00 0.00 32 1010.2
20260504201358 73 223 10.0 19.0 0.00 0.00 0.00 31 1010.2
20260504200851 73 199 9.0 18.0 0.00 0.00 0.00 32 1010.2
20260504200350 73 200 10.0 19.0 0.00 0.00 0.00 31 1010.1
20260504195851 73 240 10.0 19.0 0.00 0.00 0.00 32 1010.1
20260504195351 73 165 10.0 22.0 0.00 0.00 0.00 32 1010.3
20260504194848 72 200 10.0 22.0 0.00 0.00 0.00 32 1010.3
20260504194350 73 191 10.0 20.0 0.00 0.00 0.00 31 1010.4
20260504193850 73 211 9.0 18.0 0.00 0.00 0.00 31 1010.5
20260504193349 73 238 9.0 19.0 0.00 0.00 0.00 30 1010.5
20260504192856 73 200 8.0 19.0 0.00 0.00 0.00 31 1010.6
20260504192850 73 243 8.0 19.0 0.00 0.00 0.00 31 1010.6
20260504191851 73 182 9.0 19.0 0.00 0.00 0.00 31 1010.8
20260504191348 73 236 8.0 20.0 0.00 0.00 0.00 32 1010.8
20260504190849 73 236 9.0 20.0 0.00 0.00 0.00 31 1010.9
20260504190349 72 287 9.0 18.0 0.00 0.00 0.00 31 1010.9
20260504190123 72 245 11.0 20.0 0.00 0.00 0.00 32 1010.9
20260504185349 72 211 11.0 21.0 0.00 0.00 0.00 31 1011.0
20260504184850 72 174 11.0 21.0 0.00 0.00 0.00 32 1011.1
20260504184615 72 198 10.0 20.0 0.00 0.00 0.00 32 1011.1
20260504184109 71 220 11.0 21.0 0.00 0.00 0.00 32 1011.2
20260504183335 72 210 10.0 21.0 0.00 0.00 0.00 31 1011.4
20260504182835 71 246 10.0 29.0 0.00 0.00 0.00 32 1011.4
20260504182333 71 221 11.0 29.0 0.00 0.00 0.00 32 1011.4
20260504182104 71 119 11.0 25.0 0.00 0.00 0.00 32 1011.5
20260504181331 71 215 11.0 25.0 0.00 0.00 0.00 31 1011.6
20260504180830 71 190 9.0 19.0 0.00 0.00 0.00 32 1011.5
20260504180332 71 220 10.0 23.0 0.00 0.00 0.00 32 1011.7
20260504175831 71 236 11.0 23.0 0.00 0.00 0.00 31 1011.7
20260504175331 71 204 10.0 24.0 0.00 0.00 0.00 32 1011.8
20260504174832 71 215 9.0 24.0 0.00 0.00 0.00 33 1011.8
20260504174331 71 197 8.0 25.0 0.00 0.00 0.00 33 1011.8
20260504174104 71 171 10.0 25.0 0.00 0.00 0.00 34 1011.9
20260504173329 70 214 10.0 22.0 0.00 0.00 0.00 32 1012.0
20260504172830 70 150 8.0 19.0 0.00 0.00 0.00 33 1011.9
20260504172600 71 244 8.0 24.0 0.00 0.00 0.00 33 1012.2
20260504171829 70 180 8.0 24.0 0.00 0.00 0.00 35 1012.2
20260504171329 71 234 7.0 18.0 0.00 0.00 0.00 34 1012.3
20260504170829 70 244 9.0 20.0 0.00 0.00 0.00 34 1012.4
20260504170328 70 209 8.0 20.0 0.00 0.00 0.00 33 1012.6
20260504160321 68 244 10.0 19.0 0.00 0.00 0.00 38 1013.1
20260504150809 65 201 8.0 16.0 0.00 0.00 0.00 44 1013.6
20260504150302 64 146 9.0 17.0 0.00 0.00 0.00 46 1013.7
20260504141232 61 198 10.0 19.0 0.00 0.00 0.00 55 1013.9
20260504140731 61 206 10.0 19.0 0.00 0.00 0.00 55 1013.9
20260504140501 61 199 9.0 18.0 0.00 0.00 0.00 56 1013.9
20260504130719 58 206 11.0 19.0 0.00 0.00 0.00 62 1014.3
20260504130213 58 181 10.0 19.0 0.00 0.00 0.00 62 1014.4